Location: Gleizolles
(44.4833°N, 6.7667°E)
Time: 01:31:11
(UTC+00:00)

Vanguard 2 Rocket - Pass Details

Date: 19 June 2024
Orbit: 555 x 3302 km, 32.9° (Epoch: 24 July)

Event Time Altitude Azimuth Distance (km) Brightness Sun altitude
Rises 01:16:48 0° 212° (SSW) 6,922 - -18.2°
Reaches altitude 10° 01:21:58 10° 204° (SSW) 6,104 - -17.8°
Exits shadow 01:26:36 19° 194° (SSW) 5,449 10.2 -17.4°
Maximum altitude 01:38:24 34° 149° (SSE) 4,476 10.1 -16.4°
Drops below altitude 10° 01:53:02 10° 94° (E) 5,486 11.2 -15.1°
Sets 01:57:17 0° 85° (E) 6,175 11.7 -14.6°
